This demonstration page uses our WeatherBlox Daily Observations layout. Learn more.

Left ArrowRight Arrow

Hourly Observations for November 8, 2015

Temp ( °F °C ) Dew Point ( °F °C ) Humidity (%) Winds ( mph kmh ) Pressure ( in mb ) Visibility ( mi km ) Precip ( " mm )
12:53 am 00:53 Clear 38 3.3 27 -2.8 65 65 SW 10 17 29.83 1010 10 16 N/A
1:53 am 01:53 Clear 32 undefined 26 -3.3 79 79 WSW 8 13 29.83 1010 10 16 N/A
2:53 am 02:53 Clear 34 1.1 26 -3.3 73 73 W 6 9 29.83 1010 10 16 N/A
3:53 am 03:53 Clear 34 1.1 25 -3.9 70 70 W 7 11 29.82 1010 10 16 N/A
4:53 am 04:53 Clear 33 0.6 25 -3.9 72 72 W 5 7 29.84 1010 10 16 N/A
5:53 am 05:53 Clear 37 2.8 24 -4.4 59 59 W 3 6 29.83 1010 10 16 N/A
6:53 am 06:53 Clear 36 2.2 24 -4.4 62 62 W 5 7 29.83 1010 10 16 N/A
7:53 am 07:53 Sunny 37 2.8 25 -3.9 62 62 WSW 6 9 29.82 1010 10 16 N/A
8:53 am 08:53 Sunny 46 7.8 26 -3.3 46 46 SW 20 31 29.79 1009 10 16 N/A
9:53 am 09:53 Sunny 49 9.4 25 -3.9 39 39 SW 17 28 29.79 1009 10 16 N/A
10:53 am 10:53 Sunny 54 12.2 25 -3.9 33 33 SW 24 39 29.78 1009 10 16 N/A
11:53 am 11:53 Sunny 57 13.9 26 -3.3 30 30 SW 25 41 29.76 1008 10 16 N/A
12:53 pm 12:53 Sunny 58 14.4 26 -3.3 29 29 SW 24 39 29.74 1007 10 16 N/A
1:53 pm 13:53 Sunny 59 15 27 -2.8 29 29 SW 18 30 29.74 1007 10 16 N/A
2:53 pm 14:53 Sunny 59 15 28 -2.2 31 31 SW 12 19 29.73 1007 10 16 N/A
3:53 pm 15:53 Sunny 57 13.9 28 -2.2 33 33 W 7 11 29.75 1008 10 16 N/A
4:53 pm 16:53 Clear 48 8.9 27 -2.8 44 44 SW 10 17 29.77 1008 10 16 N/A
5:53 pm 17:53 Clear 47 8.3 28 -2.2 48 48 SSW 10 17 29.78 1008 10 16 N/A
6:53 pm 18:53 Clear 45 7.2 27 -2.8 49 49 NE 5 7 29.79 1009 10 16 N/A
7:53 pm 19:53 Clear 42 5.6 28 -2.2 58 58 S 8 13 29.80 1009 10 16 N/A
8:53 pm 20:53 Clear 45 7.2 27 -2.8 49 49 SSW 9 15 29.78 1008 10 16 N/A
9:53 pm 21:53 Clear 46 7.8 28 -2.2 50 50 SW 14 22 29.79 1009 10 16 N/A
10:53 pm 22:53 Clear 38 3.3 27 -2.8 65 65 WSW 10 17 29.80 1009 10 16 N/A
11:53 pm 23:53 Clear 34 1.1 27 -2.8 76 76 W 7 11 29.81 1010 10 16 N/A

Powered by AerisWeather